Temperature
22 22 22 22 19 17 19 20 20 21 20 21 20 20 18 18 18 17 17 17 17 17 17 17 17 17 17 17 17 17 17 17 17 17 17 17 17 17 17 17 18 18 18 18 18 18 18 18 18
22 22 22 21 17 18 19 20 20 21 21 21 20 19 18 17 17 17 17 17 17 17 17 17 17 17 17 17 17 17 17 17 17 17 17 17 17 17 17 17 17 18 18 18 18 18 17 17 17
22 22 22 18 18 18 19 20 20 21 22 21 20 19 18 17 17 17 17 17 17 17 17 17 17 17 17 17 17 17 17 17 17 17 17 17 17 17 17 17 17 17 17 18 17 17 17 17 17
22 22 21 18 19 20 20 20 21 21 21 21 20 18 18 18 18 17 17 17 17 17 17 17 17 17 17 17 17 17 17 17 17 17 17 17 17 17 17 17 17 17 17 17 17 17 17 17 17
22 22 18 18 20 20 20 21 21 20 20 20 19 18 17 18 18 18 17 17 17 17 17 17 17 17 17 17 17 17 17 17 17 17 17 17 17 17 17 17 17 17 17 17 17 17 17 17 17
22 19 18 18 20 20 21 21 21 20 20 19 19 17 17 18 18 17 17 17 17 17 17 17 17 17 17 17 17 17 17 17 17 17 17 17 17 17 17 17 17 17 17 17 17 17 17 17 17
21 18 18 19 19 20 21 22 21 20 20 20 19 17 17 17 18 18 17 17 17 17 17 17 17 17 17 17 17 17 17 17 16 16 16 16 17 17 17 17 17 17 17 17 17 17 17 17 16
23 18 19 19 19 20 21 22 21 21 20 20 20 18 17 17 18 17 17 17 17 17 17 17 17 17 17 17 16 16 16 16 16 16 16 16 16 16 16 16 16 16 16 16 16 16 16 16 16
23 18 18 19 20 20 21 21 21 21 20 20 20 19 19 18 18 17 17 17 17 17 17 17 17 17 16 16 16 16 16 16 16 16 16 16 16 16 16 16 16 16 16 16 16 16 16 16 16
22 18 20 20 20 20 21 21 21 20 19 19 19 19 18 18 18 18 17 17 17 17 17 17 17 17 16 16 16 16 16 16 16 16 16 16 16 16 16 16 16 16 16 16 16 16 16 16 16
21 20 21 21 22 22 21 21 21 20 18 19 19 18 18 18 18 18 18 17 17 17 17 17 17 16 16 16 16 16 16 16 16 16 16 16 16 16 16 16 16 16 16 16 16 16 16 16 16
21 21 22 22 22 22 21 21 21 20 20 20 20 19 18 18 18 18 18 17 17 17 17 17 17 16 16 16 16 16 16 16 16 16 16 15 16 16 15 15 15 16 16 16 16 15 15 15 15
21 21 22 22 22 22 22 21 21 20 21 20 20 19 19 18 18 18 18 18 17 17 17 16 16 16 16 16 16 16 16 16 15 15 15 15 15 15 15 15 15 15 15 15 15 15 15 15 15
22 22 22 22 22 22 21 20 20 20 20 20 19 19 19 18 18 18 18 18 17 17 17 17 16 16 16 16 16 16 16 15 15 15 15 15 15 15 15 15 15 15 15 15 15 15 15 15 15
22 21 20 21 21 21 21 20 19 20 20 20 19 19 19 19 18 18 18 17 17 17 17 17 16 16 16 16 16 16 16 15 15 15 15 15 15 15 15 15 15 15 15 15 15 15 15 15 15
21 20 19 20 20 21 20 19 19 20 20 19 19 19 18 18 18 18 18 18 17 17 17 16 16 16 16 16 16 16 15 15 15 15 15 15 15 15 15 15 15 15 15 15 15 15 15 15 15
19 19 19 20 20 20 19 19 19 20 20 19 19 19 18 18 18 18 18 18 18 17 17 16 16 16 16 16 16 16 15 15 15 15 15 15 15 15 15 15 15 15 15 15 15 15 15 15 14
19 19 19 19 20 20 19 18 18 19 19 18 18 18 18 18 18 18 18 18 18 17 17 17 16 16 16 16 15 15 15 15 15 15 15 14 14 14 14 14 14 14 14 14 14 14 14 14 14
20 20 19 20 20 20 19 18 18 18 18 18 18 18 18 18 18 18 18 18 17 17 17 17 16 16 16 16 15 15 15 15 14 14 14 14 14 14 14 14 14 14 14 14 14 14 14 14 14
20 20 20 20 21 20 18 18 18 18 18 18 18 18 18 18 18 18 18 17 17 17 17 16 16 16 16 15 15 15 15 14 14 14 14 14 14 14 14 14 14 14 14 14 14 14 14 14 14
20 20 20 20 20 20 19 18 18 18 18 18 18 18 18 18 18 17 17 17 17 17 17 16 16 16 15 15 15 15 14 14 14 14 14 13 13 13 13 13 13 13 13 13 14 14 14 14 13
20 21 21 20 19 17 19 17 17 17 17 17 18 18 18 18 18 18 17 17 17 17 17 16 16 16 15 15 15 15 14 14 14 14 13 13 13 13 13 13 13 13 13 13 13 13 13 13 13
20 21 21 20 19 17 17 17 16 17 17 17 17 18 18 18 18 18 17 17 17 17 16 16 16 15 15 15 15 15 14 14 13 13 13 13 13 13 12 13 13 13 13 13 13 13 13 13 13
21 20 19 16 16 17 17 17 17 16 17 17 17 17 18 18 18 17 17 17 17 16 16 16 15 15 15 15 14 14 14 14 13 13 13 13 12 12 12 12 12 12 12 12 12 12 12 12 12
19 17 16 17 15 16 17 17 17 17 18 18 17 17 18 18 17 17 17 17 16 16 16 16 15 15 15 14 14 14 14 14 13 13 13 12 12 12 12 12 12 12 12 12 12 12 12 12 12
19 17 16 17 16 16 17 17 17 18 19 19 19 18 18 17 17 17 17 17 16 16 16 16 15 15 15 14 14 14 14 13 13 13 12 12 12 12 12 12 12 12 12 12 12 12 12 11 12
19 17 17 16 17 16 16 17 18 18 17 17 17 17 17 17 17 17 17 17 16 16 16 15 15 15 14 14 14 14 13 13 13 12 12 12 12 11 11 11 11 11 11 11 11 11 11 11 11
19 18 15 16 16 16 16 17 16 17 17 17 16 16 17 17 17 17 17 16 16 16 16 15 15 15 14 14 14 14 13 13 13 12 12 12 11 11 11 11 11 11 11 11 11 11 11 11 11
19 18 17 15 15 15 16 16 18 17 17 16 16 17 17 17 17 17 16 16 16 16 15 15 15 14 14 14 13 13 13 13 12 12 12 12 11 11 11 11 11 11 11 10 10 10 10 10 10
19 18 16 16 16 14 14 15 17 17 17 17 17 17 17 17 17 17 16 16 16 15 15 15 14 14 14 14 13 13 13 12 12 12 11 11 11 11 11 10 10 10 10 10 10 10 10 10 10
Wind_Speed
3 2 3 4 6 6 4 1 2 4 4 5 9 10 9 6 5 5 2 5 7 5 5 7 8 9 10 10 11 11 11 12 12 12 12 12 12 12 12 12 11 11 11 11 11 11 10 11 11
2 1 4 5 6 4 2 1 4 4 6 8 8 8 8 6 5 6 2 5 7 7 6 8 9 10 10 11 11 11 11 11 12 12 12 12 12 12 12 12 11 11 11 11 11 10 10 10 10
2 1 4 5 4 4 4 2 5 5 6 5 6 6 5 4 4 4 4 7 7 7 7 8 10 10 10 11 11 10 10 11 11 11 12 12 11 11 11 11 11 11 11 11 10 10 10 10 10
3 5 5 6 5 2 5 4 5 6 6 7 7 6 4 3 4 5 8 9 9 6 7 9 10 10 10 10 10 10 10 10 10 10 11 10 10 10 10 10 11 11 11 10 10 9 9 9 9
4 5 6 5 4 2 4 5 6 7 5 5 7 6 4 2 6 9 9 9 9 6 7 8 9 9 9 9 10 10 10 10 10 10 10 10 10 10 10 10 10 10 10 9 9 8 8 8 8
4 5 5 3 3 3 3 5 8 9 7 6 7 6 3 3 7 8 9 8 8 7 6 7 8 9 9 9 9 9 9 9 9 9 9 8 9 9 9 9 9 9 8 8 8 8 8 8 8
4 4 3 4 4 3 3 4 7 8 6 4 6 6 3 2 5 8 8 8 7 7 6 5 6 7 7 8 8 8 8 8 7 7 7 7 8 8 8 7 8 8 7 7 7 8 7 7 7
5 5 3 2 4 2 3 4 5 7 5 4 5 7 5 5 6 7 8 7 6 5 4 4 4 4 5 5 6 7 7 6 6 5 5 6 6 6 6 6 6 6 6 6 6 6 7 7 8
5 5 2 3 5 3 3 5 3 4 7 4 4 5 7 9 8 8 6 4 4 4 3 3 3 3 3 4 4 4 5 5 4 4 4 4 4 4 4 4 5 5 5 5 5 6 6 7 8
5 4 4 4 6 6 4 5 5 5 7 5 6 6 8 9 9 8 7 6 4 4 3 3 3 3 3 2 3 3 3 3 3 3 3 3 3 3 3 4 4 4 5 5 5 6 6 6 6
4 5 3 3 5 6 4 3 3 8 4 7 10 10 9 8 8 8 6 6 5 5 4 4 3 3 3 2 3 3 2 3 3 2 4 4 3 3 4 4 4 4 4 4 5 5 5 5 5
3 2 4 4 5 5 4 3 4 5 7 9 13 13 10 9 8 8 7 5 4 5 4 4 4 3 3 4 3 2 2 2 2 2 3 3 2 2 2 2 2 3 3 3 3 3 4 5 5
3 2 2 4 5 5 5 5 5 4 7 9 11 11 10 9 7 6 5 5 4 5 4 4 5 5 4 3 3 3 2 2 2 3 3 4 2 1 1 1 2 2 2 2 2 3 3 4 4
4 4 4 4 5 4 6 3 5 5 8 11 12 10 10 10 9 6 6 5 4 4 4 4 5 5 5 3 3 2 3 3 4 4 4 5 4 2 2 2 2 2 2 3 4 4 3 3 4
3 4 2 2 3 3 6 1 5 8 9 10 10 10 9 9 8 8 7 6 5 4 4 5 6 5 5 4 3 3 4 5 4 4 5 6 5 4 3 2 2 2 3 4 5 5 5 4 4
3 4 1 4 3 4 7 5 7 9 10 9 8 8 8 7 7 7 7 7 6 5 4 4 5 5 4 4 3 4 4 5 4 5 6 6 6 6 5 3 2 3 4 4 3 3 4 4 4
2 1 3 4 4 4 6 6 6 8 11 10 9 8 8 7 6 6 7 8 7 6 6 5 4 5 4 4 4 4 4 4 4 5 5 5 6 7 6 3 3 4 4 3 3 3 3 3 3
4 4 4 6 5 5 6 6 6 8 11 10 9 8 8 8 8 7 7 7 7 7 7 5 4 4 4 3 3 3 4 3 4 4 4 5 5 6 6 4 3 4 3 3 3 3 3 2 2
5 5 5 6 6 5 6 7 7 8 8 9 8 8 9 8 7 6 7 6 6 6 7 6 5 4 4 3 2 2 2 2 2 3 4 5 5 5 5 3 3 3 3 2 3 3 3 2 2
3 3 3 3 3 5 5 7 6 10 11 12 11 10 10 8 6 5 5 5 6 6 5 5 5 4 4 3 2 2 2 2 2 2 4 5 5 4 4 3 2 2 2 3 3 3 2 1 2
2 4 4 4 1 0 1 3 4 5 7 8 9 10 10 12 11 9 7 6 6 6 6 6 5 4 4 4 3 3 3 3 3 3 2 3 4 4 4 3 3 2 2 2 1 2 3 2 1
4 5 4 3 2 3 3 3 6 6 6 8 9 9 10 10 10 10 9 7 7 7 6 6 6 5 4 4 5 5 4 2 1 1 1 2 4 4 4 3 3 2 2 2 1 2 2 3 1
6 3 2 3 3 1 1 3 6 3 6 9 10 10 10 11 12 11 10 9 8 7 7 6 6 5 4 4 5 5 4 2 1 1 2 2 3 4 4 3 3 2 2 2 1 1 2 2 2
2 3 4 5 4 2 5 5 6 6 9 9 10 10 10 10 10 9 8 7 6 6 6 6 6 4 4 5 5 5 5 4 3 2 2 1 1 2 3 4 3 3 2 1 1 1 1 1 2
5 5 4 4 3 5 4 4 7 8 9 11 13 11 10 10 10 10 9 8 7 7 6 6 7 5 4 5 4 5 5 5 5 3 3 2 1 1 1 2 2 1 2 2 2 2 1 1 2
3 8 6 4 4 4 2 4 6 5 4 7 9 10 10 10 10 11 10 9 8 8 7 7 7 6 5 5 4 4 5 4 3 4 3 3 2 1 1 1 1 2 2 2 2 1 1 1 1
4 4 6 5 2 2 4 4 5 3 3 6 8 9 10 10 10 10 9 8 8 8 8 8 8 6 6 5 5 4 4 4 4 3 3 2 1 1 1 1 1 2 2 2 2 1 1 1 1
5 6 5 4 2 3 4 3 4 5 5 6 8 10 9 9 9 9 9 8 7 7 6 6 7 7 6 6 5 4 4 4 4 4 3 2 2 1 2 1 1 1 2 2 2 1 1 2 1
3 3 4 4 4 5 3 6 4 8 8 9 9 9 10 10 9 9 7 6 6 6 6 6 6 6 5 6 5 4 4 4 4 3 3 3 2 2 2 1 1 1 1 1 2 1 1 1 1
6 6 6 4 3 4 3 6 5 5 7 9 9 8 9 9 8 8 7 6 5 5 5 6 6 6 6 5 5 5 4 4 4 3 3 3 2 2 1 1 1 1 1 1 2 1 1 1 1
Wind_Direction
303 315 95 62 54 56 74 73 118 77 61 59 72 81 82 67 88 126 214 141 131 128 112 101 94 91 89 85 84 84 85 85 85 85 83 83 83 81 79 79 80 83 84 85 85 85 85 86 85
338 29 65 59 79 82 58 90 89 95 131 119 84 79 76 68 80 108 128 145 132 124 112 105 98 92 92 91 88 87 85 84 85 86 86 84 83 82 81 81 79 80 82 85 84 84 84 84 85
324 75 78 70 94 134 147 152 112 95 101 96 83 62 76 102 108 133 161 144 123 118 113 111 104 98 95 94 93 91 89 88 87 87 86 84 82 81 80 82 80 77 79 82 80 81 82 84 83
60 47 56 73 86 124 147 157 123 99 67 59 91 72 66 86 138 144 138 129 119 117 117 114 107 101 98 96 96 95 94 93 91 90 90 87 84 82 82 82 81 78 78 82 81 80 83 85 81
65 71 63 69 78 90 126 130 114 101 89 76 90 92 70 55 119 130 131 126 123 119 117 115 111 107 104 101 99 97 97 99 96 93 92 91 89 86 84 83 84 80 79 81 78 76 80 82 79
56 67 82 96 95 82 86 107 101 96 112 109 99 105 109 133 125 136 133 127 127 128 123 120 115 109 106 104 104 101 99 100 99 96 95 94 94 91 88 88 87 83 78 78 75 74 78 77 72
103 92 117 133 117 98 125 108 105 116 112 123 122 105 130 164 146 138 131 126 122 123 121 121 121 114 110 109 108 108 104 102 99 98 97 97 96 95 92 89 90 88 83 77 74 73 74 74 71
125 105 102 129 128 137 140 107 115 118 116 113 112 127 162 186 146 129 123 120 119 121 126 128 132 123 120 122 116 108 104 101 99 96 96 100 97 93 92 92 93 92 87 81 77 72 69 70 71
99 85 139 174 156 159 131 104 91 88 104 90 90 132 157 148 127 116 111 106 122 134 142 140 144 145 141 139 127 113 103 101 96 92 96 94 86 82 83 85 86 86 80 76 75 72 65 67 68
92 127 194 186 164 156 140 123 131 92 88 84 79 89 118 130 130 135 140 144 149 159 169 158 151 153 155 136 105 93 83 88 84 84 85 91 88 81 87 81 77 76 70 67 68 64 62 62 58
118 158 171 147 162 143 131 122 114 123 127 155 147 145 140 136 139 146 149 151 159 162 163 170 158 153 143 110 112 97 82 79 77 86 93 95 84 73 75 70 58 64 62 54 48 46 50 60 60
110 156 152 150 147 133 140 135 119 146 177 171 156 153 150 150 154 155 153 154 139 134 149 154 158 139 133 124 112 105 93 80 77 72 93 101 81 69 82 78 67 65 67 64 59 60 52 57 61
120 156 139 134 124 136 124 130 135 148 155 148 144 144 154 155 152 151 150 147 134 139 147 147 141 139 130 110 104 102 101 101 95 80 84 106 95 78 80 84 86 74 76 81 75 71 67 64 64
163 143 130 137 139 153 138 144 125 170 150 142 146 152 157 155 155 145 135 133 138 143 142 143 133 134 125 111 109 106 104 99 85 76 79 96 104 92 80 86 88 79 75 86 91 87 85 72 71
122 107 75 179 167 165 126 124 179 180 153 150 156 159 158 161 154 152 152 145 143 141 130 132 128 118 117 117 115 102 95 90 79 75 74 82 91 92 87 85 82 75 83 87 85 75 75 70 66
67 94 176 254 187 175 139 210 217 178 155 161 164 161 166 167 159 156 152 144 144 139 125 124 123 117 113 108 101 90 86 88 79 76 68 69 80 86 86 78 67 75 87 91 91 78 76 64 61
38 165 219 252 214 176 165 211 218 180 162 167 171 167 169 165 162 159 155 152 150 145 135 123 118 122 117 105 100 92 84 81 80 79 71 68 77 89 90 80 68 76 82 79 93 81 90 81 67
219 215 221 219 218 175 187 217 208 183 170 173 175 169 172 172 179 170 162 157 147 142 136 128 125 131 127 107 91 80 67 62 70 71 69 76 81 86 89 84 69 71 76 67 76 85 73 91 91
204 207 225 230 213 180 207 221 209 187 180 180 179 175 179 184 184 169 157 151 139 135 135 139 138 135 128 114 109 100 82 58 50 54 63 77 83 86 89 83 76 75 81 89 94 93 82 64 73
208 205 235 266 215 184 209 233 213 189 192 188 184 183 183 175 162 158 151 145 145 148 146 137 133 136 136 140 149 136 127 102 83 52 50 61 72 79 92 83 80 81 81 73 84 96 94 69 69
222 194 212 219 312 264 155 287 235 214 201 194 187 182 179 174 169 165 156 151 144 149 154 151 145 142 136 128 109 90 71 56 46 42 29 29 66 80 90 95 96 94 95 109 109 113 118 128 17
236 227 205 182 135 253 174 248 257 218 204 202 194 181 179 173 168 168 165 161 160 160 151 144 143 139 136 131 128 128 126 128 168 147 48 16 46 68 81 90 96 102 100 106 127 118 121 131 143
215 226 197 186 168 272 253 190 272 208 206 209 199 188 182 175 169 169 171 172 167 154 149 149 141 136 136 133 135 134 129 132 121 88 70 42 25 46 63 79 85 94 94 91 84 88 112 124 143
171 66 40 52 76 291 239 188 258 215 208 199 198 192 180 174 169 167 167 160 155 150 148 149 146 149 146 132 132 140 141 133 119 103 93 58 27 26 43 70 78 85 86 79 84 88 110 112 122
87 86 35 0 8 253 244 191 245 241 207 189 186 185 176 170 167 165 162 163 163 162 161 156 151 156 157 141 141 151 150 148 150 156 153 138 85 12 355 52 64 77 83 85 81 71 61 110 119
170 139 156 198 226 272 308 225 258 276 198 175 168 163 161 164 167 169 171 171 171 170 165 158 158 163 165 155 154 151 151 155 161 167 164 170 186 212 221 72 67 64 83 82 73 58 41 94 107
143 166 173 151 209 262 278 285 312 18 113 144 152 158 166 169 171 171 170 171 172 172 170 166 163 163 165 163 155 149 150 151 158 164 156 164 181 181 126 107 94 84 86 85 80 65 38 73 72
154 151 98 124 176 256 288 266 239 223 197 171 168 174 175 170 169 169 172 173 171 172 169 161 161 164 161 158 164 160 161 160 155 145 149 158 168 148 136 122 116 100 100 98 86 70 51 74 57
156 143 131 146 167 166 247 270 240 204 192 179 180 177 171 168 170 171 172 171 165 159 159 160 161 156 160 164 162 155 164 160 152 155 168 168 160 145 135 144 133 119 111 101 93 74 68 79 45
173 173 150 165 224 174 181 268 291 205 185 172 173 172 167 166 164 165 164 156 156 160 162 168 169 167 172 171 162 160 162 157 156 165 174 165 156 152 143 144 135 124 109 113 125 136 102 124 116
Height
1505 1504 1504 1505 1509 1521 1524 1519 1514 1512 1513 1514 1513 1514 1518 1522 1526 1533 1530 1528 1528 1527 1527 1526 1525 1524 1523 1523 1522 1522 1522 1521 1521 1521 1520 1520 1520 1520 1519 1519 1519 1518 1518 1518 1517 1517 1517 1517 1517
1504 1504 1505 1505 1518 1532 1528 1518 1515 1513 1514 1514 1515 1517 1520 1524 1526 1528 1528 1529 1529 1528 1527 1527 1526 1525 1524 1523 1523 1523 1523 1522 1522 1522 1521 1521 1521 1521 1520 1520 1520 1519 1519 1519 1518 1518 1518 1517 1518
1504 1504 1506 1510 1521 1529 1525 1517 1514 1514 1514 1514 1517 1520 1522 1526 1527 1528 1528 1529 1529 1529 1528 1527 1527 1526 1525 1525 1524 1524 1524 1523 1523 1523 1523 1522 1522 1522 1522 1521 1521 1520 1520 1520 1520 1519 1519 1518 1519
1505 1506 1508 1516 1522 1518 1517 1515 1513 1514 1515 1516 1518 1522 1525 1528 1528 1528 1529 1530 1530 1529 1529 1528 1528 1527 1526 1526 1525 1525 1525 1524 1524 1524 1524 1523 1523 1523 1523 1522 1522 1522 1521 1521 1521 1521 1520 1520 1520
1505 1506 1514 1522 1521 1516 1514 1513 1514 1515 1517 1519 1519 1524 1527 1529 1528 1529 1530 1530 1530 1530 1530 1529 1529 1528 1528 1527 1526 1526 1526 1526 1525 1525 1525 1524 1524 1524 1524 1524 1523 1523 1523 1523 1522 1522 1522 1522 1521
1506 1509 1523 1528 1522 1517 1515 1515 1515 1517 1519 1521 1522 1525 1529 1530 1529 1530 1530 1531 1531 1530 1530 1530 1530 1529 1529 1528 1528 1527 1527 1527 1527 1526 1526 1525 1525 1525 1525 1524 1524 1524 1524 1524 1524 1523 1523 1523 1523
1508 1513 1522 1524 1522 1519 1516 1516 1516 1518 1520 1521 1522 1526 1529 1530 1530 1530 1531 1532 1532 1532 1531 1531 1530 1530 1530 1529 1529 1528 1528 1528 1528 1527 1527 1527 1526 1526 1526 1526 1525 1525 1525 1525 1525 1525 1524 1524 1524
1506 1513 1520 1522 1522 1520 1516 1516 1517 1518 1520 1522 1523 1525 1528 1530 1531 1531 1532 1532 1532 1532 1532 1532 1531 1531 1531 1531 1530 1530 1529 1529 1529 1528 1528 1528 1527 1527 1527 1527 1526 1526 1526 1526 1526 1526 1525 1525 1525
1507 1517 1523 1520 1520 1518 1515 1516 1519 1519 1520 1522 1523 1524 1526 1529 1531 1532 1532 1532 1533 1533 1533 1532 1532 1532 1532 1532 1531 1531 1530 1530 1530 1529 1529 1528 1528 1528 1528 1527 1527 1527 1527 1527 1526 1526 1526 1526 1526
1506 1518 1516 1512 1513 1514 1514 1516 1518 1521 1521 1523 1524 1526 1527 1529 1530 1531 1531 1532 1532 1533 1533 1533 1533 1533 1533 1532 1532 1532 1531 1531 1531 1530 1530 1529 1529 1529 1529 1528 1528 1528 1528 1527 1527 1527 1527 1527 1527
1506 1512 1510 1510 1511 1512 1514 1516 1518 1520 1523 1523 1523 1525 1527 1528 1529 1530 1531 1532 1532 1533 1533 1534 1533 1533 1533 1533 1533 1532 1532 1531 1531 1531 1531 1530 1530 1530 1529 1529 1529 1529 1528 1528 1528 1528 1528 1528 1528
1507 1508 1508 1509 1511 1512 1514 1516 1518 1518 1520 1521 1522 1524 1526 1527 1529 1530 1531 1531 1532 1532 1533 1533 1533 1533 1533 1533 1533 1532 1532 1532 1532 1531 1531 1531 1530 1530 1530 1530 1530 1529 1529 1529 1529 1529 1529 1529 1529
1507 1508 1508 1509 1511 1512 1514 1516 1517 1519 1520 1521 1523 1525 1526 1527 1528 1530 1531 1532 1532 1532 1533 1533 1533 1534 1533 1533 1533 1533 1532 1532 1532 1531 1531 1531 1531 1530 1530 1530 1530 1530 1530 1530 1530 1529 1529 1529 1530
1506 1507 1509 1510 1511 1513 1514 1517 1518 1519 1520 1521 1523 1524 1525 1527 1528 1529 1530 1531 1532 1532 1532 1533 1533 1533 1533 1533 1533 1532 1532 1532 1532 1531 1531 1531 1531 1530 1530 1530 1530 1530 1530 1530 1530 1530 1530 1530 1530
1506 1509 1511 1511 1511 1513 1515 1519 1517 1518 1519 1521 1522 1523 1525 1526 1527 1528 1529 1530 1531 1532 1532 1532 1533 1533 1533 1533 1533 1533 1532 1532 1532 1532 1531 1531 1531 1530 1530 1530 1530 1530 1530 1530 1530 1530 1530 1530 1530
1508 1514 1520 1513 1511 1512 1517 1524 1516 1516 1518 1520 1521 1523 1524 1525 1526 1527 1528 1529 1530 1531 1531 1532 1533 1533 1533 1533 1532 1532 1532 1532 1532 1532 1531 1531 1531 1530 1530 1530 1530 1530 1530 1530 1530 1530 1530 1530 1530
1515 1522 1520 1515 1509 1510 1515 1519 1514 1515 1516 1518 1520 1521 1522 1524 1526 1526 1527 1528 1529 1530 1531 1531 1532 1532 1532 1532 1532 1532 1532 1531 1531 1531 1531 1531 1530 1530 1530 1530 1530 1530 1530 1530 1530 1530 1530 1530 1530
1521 1520 1518 1516 1509 1510 1513 1514 1512 1513 1514 1515 1517 1519 1521 1522 1523 1524 1526 1527 1528 1529 1530 1530 1530 1531 1531 1531 1531 1531 1531 1531 1531 1531 1531 1530 1530 1530 1530 1529 1529 1529 1529 1529 1530 1530 1530 1530 1530
1510 1513 1515 1511 1505 1508 1512 1512 1511 1511 1513 1514 1515 1517 1518 1520 1522 1523 1525 1526 1527 1528 1528 1529 1529 1530 1530 1530 1530 1530 1530 1530 1530 1530 1530 1530 1529 1529 1529 1529 1528 1528 1529 1529 1529 1529 1529 1530 1530
1506 1512 1512 1508 1503 1507 1511 1511 1508 1508 1509 1510 1511 1514 1516 1518 1520 1522 1523 1525 1525 1526 1527 1528 1528 1529 1529 1529 1529 1529 1529 1529 1529 1529 1529 1528 1528 1528 1528 1528 1528 1528 1528 1528 1528 1529 1529 1529 1529
1506 1509 1510 1509 1506 1505 1510 1514 1510 1507 1507 1509 1510 1511 1513 1514 1517 1519 1521 1522 1524 1525 1525 1526 1527 1527 1528 1528 1528 1528 1529 1528 1528 1528 1528 1527 1527 1527 1527 1527 1527 1527 1527 1527 1528 1528 1528 1528 1529
1508 1501 1502 1505 1513 1519 1514 1527 1513 1507 1507 1506 1507 1509 1510 1512 1514 1516 1518 1520 1521 1522 1524 1525 1525 1526 1527 1527 1527 1527 1527 1527 1527 1527 1527 1527 1527 1526 1526 1526 1526 1526 1526 1526 1527 1527 1527 1527 1527
1500 1496 1499 1503 1510 1518 1516 1524 1517 1507 1508 1505 1504 1505 1506 1509 1511 1513 1515 1517 1519 1521 1522 1523 1524 1525 1526 1526 1526 1526 1526 1526 1526 1526 1526 1526 1525 1525 1525 1524 1524 1525 1525 1525 1526 1526 1526 1526 1526
1494 1499 1503 1511 1517 1527 1517 1522 1518 1508 1501 1499 1500 1501 1504 1506 1509 1512 1514 1516 1517 1519 1521 1522 1523 1524 1524 1524 1525 1525 1525 1525 1525 1525 1525 1524 1524 1524 1524 1523 1523 1524 1524 1524 1524 1525 1525 1525 1525
1497 1513 1527 1528 1535 1530 1513 1516 1511 1495 1490 1491 1494 1497 1501 1504 1507 1509 1512 1514 1516 1517 1519 1520 1521 1522 1523 1523 1523 1524 1524 1524 1524 1524 1523 1523 1523 1523 1522 1522 1523 1523 1523 1523 1523 1523 1524 1524 1524
1499 1509 1528 1536 1536 1527 1513 1515 1503 1489 1487 1488 1491 1495 1499 1502 1505 1507 1509 1511 1513 1515 1517 1518 1519 1520 1521 1522 1522 1523 1523 1523 1523 1523 1522 1522 1522 1522 1522 1522 1522 1521 1521 1522 1522 1522 1522 1522 1522
1500 1507 1507 1521 1522 1527 1520 1509 1497 1490 1490 1490 1492 1495 1497 1500 1502 1505 1507 1509 1511 1513 1515 1516 1517 1518 1519 1520 1521 1521 1521 1521 1521 1521 1521 1521 1521 1521 1521 1521 1520 1520 1520 1520 1520 1520 1520 1520 1520
1493 1499 1513 1520 1527 1532 1521 1514 1509 1497 1494 1492 1493 1494 1496 1498 1501 1503 1505 1507 1509 1511 1513 1514 1516 1516 1518 1519 1519 1520 1520 1520 1520 1520 1520 1520 1520 1520 1520 1519 1519 1519 1519 1519 1519 1519 1518 1518 1518
1496 1500 1506 1517 1520 1529 1530 1518 1492 1491 1489 1490 1491 1492 1494 1497 1499 1501 1504 1506 1508 1509 1511 1512 1514 1515 1516 1517 1518 1518 1518 1518 1519 1519 1519 1519 1519 1518 1518 1518 1518 1517 1517 1517 1517 1517 1516 1516 1516
1490 1495 1503 1516 1517 1520 1525 1516 1487 1486 1486 1487 1489 1491 1493 1495 1497 1500 1502 1504 1506 1507 1509 1510 1512 1513 1514 1515 1516 1516 1517 1517 1517 1517 1517 1517 1517 1517 1517 1516 1516 1516 1516 1516 1515 1515 1515 1514 1514